Location: Unspecified
(0.0000°N, 0.0000°E)
Time: 13:15:25
(UTC+00:00)

N. Korean satellite - Pass Details

Date: 01 December 2021
Orbit: 446 x 495 km, 97.3° (Epoch: 07 December)

Event Time Altitude Azimuth Distance (km) Brightness Sun altitude
Rises 04:53:24 0° 9° (N) 2,429 10.0 -12.9°
Reaches altitude 10° 04:55:25 10° 8° (N) 1,564 9.0 -12.4°
Maximum altitude 04:58:46 79° 280° (W) 461 6.3 -11.6°
Drops below altitude 10° 05:02:09 10° 194° (SSW) 1,588 9.3 -10.9°
Sets 05:04:12 0° 193° (SSW) 2,470 10.3 -10.4°
